SCP
1 1 1 1 1 1 1 1 1 1 1 1 1 1 1 1 1 1 1 1 1 1 1 2 2 1 1 1 1 1 1 1 1 1 1 0 0 1 1 1 0 0 0
1 1 1 1 1 1 1 1 1 1 1 1 1 1 1 1 1 1 1 1 1 1 1 1 1 1 1 1 1 1 1 1 1 1 1 0 0 1 1 1 0 0 0
1 1 1 1 1 1 1 1 1 1 1 1 1 1 1 1 1 1 1 1 1 1 1 1 1 1 1 1 1 1 1 1 1 1 1 0 0 1 1 1 1 0 0
1 1 1 1 1 1 1 1 1 1 1 1 1 1 1 1 1 1 1 1 1 1 1 1 1 1 1 1 1 1 1 1 1 1 1 0 0 1 1 1 1 1 1
1 1 1 1 1 1 1 1 1 1 1 1 1 1 1 1 1 1 1 1 1 1 1 1 1 1 1 1 1 1 1 1 1 1 1 0 1 1 1 1 1 1 1
1 1 1 1 1 1 1 1 1 1 1 1 1 1 1 1 1 1 1 0 1 1 1 1 1 1 1 1 1 1 1 1 1 1 1 0 1 1 1 1 1 1 1
1 1 1 1 1 1 1 1 1 1 1 1 1 1 1 1 1 1 0 0 0 1 1 1 1 1 1 1 1 1 1 2 1 1 1 1 1 1 1 1 1 1 1
1 1 1 1 1 1 1 1 1 1 1 1 1 0 0 1 1 1 0 0 0 0 0 1 1 1 1 1 1 1 2 2 1 1 1 1 1 1 1 1 1 1 1
1 1 1 1 1 1 1 1 1 1 1 1 0 0 0 0 0 0 0 0 0 0 0 0 0 1 1 1 1 1 2 2 1 1 1 1 1 1 1 1 1 1 1
1 1 0 0 0 1 1 1 1 1 1 1 0 0 0 0 0 0 0 0 0 0 0 0 0 0 1 1 1 1 2 1 1 1 1 1 1 1 1 1 1 1 1
0 0 0 0 0 0 1 1 1 0 0 0 0 0 0 0 0 0 0 0 0 0 0 0 0 0 0 1 1 1 1 1 1 1 1 1 1 1 1 1 1 1 1
0 0 0 0 0 0 0 0 0 0 0 0 0 0 0 0 0 0 0 0 0 0 0 0 0 0 0 0 1 1 1 1 1 1 1 1 1 1 1 1 1 1 0
0 0 0 0 1 1 1 0 0 0 0 0 0 0 0 0 0 0 0 0 0 0 0 0 0 0 0 0 0 0 0 0 1 1 1 1 1 1 1 1 1 1 1
0 0 1 1 1 1 1 0 0 0 0 0 0 0 0 0 0 0 0 0 0 0 0 0 0 0 0 0 0 0 0 0 1 1 1 1 1 1 1 1 1 1 1
0 0 1 1 1 1 1 0 0 0 0 0 0 0 0 0 0 0 0 0 0 0 0 0 0 0 0 0 0 0 0 0 0 1 1 1 2 1 1 1 1 1 1
0 0 0 0 0 0 0 0 0 0 0 0 0 0 0 1 0 0 0 1 1 1 0 0 0 0 0 0 0 0 0 0 0 0 1 1 2 1 1 1 1 1 1
0 0 0 0 0 0 0 0 0 0 0 0 0 0 1 1 1 1 1 1 1 1 1 1 0 0 0 0 0 0 0 0 0 0 1 1 2 2 1 1 1 0 0
1 1 0 1 1 1 0 0 0 0 0 0 0 0 1 1 1 1 1 1 1 1 1 1 0 0 0 0 0 0 0 0 0 0 0 1 1 1 1 1 1 1 0
1 1 1 1 1 1 1 1 1 1 1 1 0 0 1 1 1 1 1 1 1 1 0 0 0 0 0 0 0 0 0 0 0 0 0 0 1 1 1 1 1 1 0
1 1 1 1 1 1 1 1 1 1 1 1 0 0 0 0 1 1 1 1 1 0 0 0 0 0 0 0 0 0 0 0 0 0 0 0 0 1 1 1 1 1 1
2 1 1 1 1 1 1 1 1 1 1 1 0 0 0 0 0 0 1 1 1 0 0 0 0 0 0 0 0 0 0 0 0 0 0 0 0 0 1 1 1 1 1
2 1 1 1 1 1 1 1 1 1 1 0 0 0 0 0 0 0 1 1 1 0 0 0 0 0 0 0 0 0 0 0 0 0 0 0 0 0 1 1 2 2 1
2 2 2 2 2 1 1 1 1 1 1 0 0 0 0 0 0 0 1 1 1 1 0 0 0 0 0 0 0 0 0 0 0 0 0 0 0 1 1 2 2 2 1
2 2 2 2 2 1 1 1 1 1 1 1 1 1 0 0 0 0 0 0 1 1 0 0 0 0 0 0 0 0 0 0 0 0 0 0 0 1 2 2 2 2 1
2 3 3 3 2 2 2 2 1 1 1 1 1 1 1 0 0 0 0 0 0 0 0 0 0 0 0 0 0 0 0 0 0 0 0 0 0 1 1 2 1 1 0
2 3 4 3 2 2 2 2 2 1 1 1 1 1 0 0 0 0 0 0 0 0 0 0 0 0 0 0 0 0 0 0 0 0 0 0 0 0 1 1 1 0 0
Wind_Speed
6 8 9 10 10 11 11 10 10 11 11 11 11 11 11 11 11 10 10 9 9 9 9 9 10 10 10 10 9 9 9 9 8 8 8 7 7 7 6 5 4 4 6
9 9 10 10 10 10 11 11 11 11 11 12 12 12 12 11 11 10 10 10 10 9 9 9 10 10 10 9 9 9 8 8 7 7 7 6 7 7 7 7 6 4 6
10 10 10 10 10 11 11 11 11 11 11 12 12 12 12 11 11 11 10 10 10 10 9 9 9 9 9 8 8 8 7 6 5 5 4 3 5 8 8 8 7 7 6
10 10 9 10 11 11 11 11 11 12 12 12 12 12 12 12 11 12 11 11 11 10 9 9 9 9 8 8 7 7 6 5 5 5 4 5 5 9 9 9 8 7 7
10 10 10 10 11 11 11 12 12 12 12 12 12 12 12 12 12 12 12 11 11 10 10 9 9 9 8 7 7 6 5 5 6 6 5 5 5 8 9 9 9 8 7
10 10 9 10 11 11 11 12 12 12 12 12 12 12 12 12 12 12 11 11 10 11 10 10 9 8 8 7 6 6 6 6 5 5 5 5 4 8 9 9 9 8 8
10 10 10 10 11 11 11 11 12 12 12 11 11 11 12 12 12 11 11 11 11 11 10 10 9 8 7 7 6 5 6 6 4 5 5 5 6 10 10 9 9 9 9
9 10 9 11 11 11 11 11 11 11 11 11 11 11 11 11 11 10 10 11 11 11 10 9 9 8 7 6 5 5 6 6 6 7 6 5 9 10 10 9 9 9 9
8 9 8 8 9 10 11 10 11 10 10 10 9 9 9 9 10 10 10 10 10 9 9 8 7 7 5 4 4 4 5 6 5 4 7 5 9 11 10 9 9 9 9
6 6 7 8 8 7 7 10 10 9 9 8 8 7 7 7 8 8 9 9 8 8 7 7 5 5 4 2 2 3 4 4 5 6 4 6 11 11 10 10 9 9 8
5 4 5 6 7 7 7 8 7 7 7 7 5 5 4 3 4 5 7 7 7 6 5 4 3 2 1 0 0 1 2 2 5 4 4 9 10 11 11 10 10 10 9
5 4 4 5 6 5 5 5 3 3 3 2 3 3 1 2 3 5 6 6 5 4 3 1 1 2 1 1 1 0 1 3 4 4 5 9 10 10 10 10 10 9 9
5 4 4 4 6 5 3 3 2 1 1 1 2 2 2 3 3 3 2 2 2 1 1 0 1 1 0 1 1 1 2 3 3 3 5 9 9 9 9 9 10 10 9
5 4 4 4 5 5 4 3 2 1 1 1 2 2 2 2 1 2 1 1 1 1 1 1 1 1 2 3 2 3 4 3 3 3 4 8 9 9 9 9 10 10 9
5 4 4 4 4 4 4 2 3 1 2 2 1 2 2 2 1 2 2 2 2 2 2 2 3 4 4 4 4 5 4 3 4 4 3 7 8 7 8 9 9 10 10
6 4 4 4 4 4 4 2 2 2 2 2 2 2 3 2 2 2 3 2 2 2 2 2 3 3 3 3 4 4 3 3 3 4 4 5 7 7 7 8 9 10 11
6 5 5 4 4 4 3 2 2 2 2 2 2 2 3 3 2 2 3 2 2 2 3 3 4 3 3 3 3 3 3 3 2 2 3 3 3 6 8 8 9 9 10
5 5 5 3 4 4 3 3 2 2 3 2 2 2 2 3 3 3 3 2 2 3 3 2 3 3 3 3 2 2 2 2 3 2 2 3 3 3 5 7 7 8 8
5 5 6 4 3 4 4 3 3 3 3 3 2 2 3 3 4 3 2 1 3 3 3 3 3 3 3 3 2 1 1 1 1 1 2 3 3 4 3 5 6 6 6
5 5 6 5 4 4 3 2 2 2 2 3 2 2 3 3 3 3 2 2 3 3 2 2 3 2 1 1 2 2 1 1 1 2 3 3 3 3 3 3 3 3 5
5 5 5 6 5 4 2 2 2 2 1 2 2 2 2 2 3 3 2 2 3 2 1 2 2 2 1 1 2 2 2 1 2 2 2 2 3 2 2 2 2 2 2
5 5 5 5 4 4 3 3 2 2 2 2 1 2 2 2 2 2 2 1 2 1 2 2 2 1 1 2 1 1 1 2 3 1 1 1 1 2 2 2 2 2 3
5 4 5 5 5 5 5 3 2 2 1 2 1 1 1 1 1 1 1 1 1 1 1 1 1 2 1 2 1 1 1 0 2 2 0 1 1 1 1 2 2 3 3
5 4 4 5 4 5 6 4 4 3 2 2 2 1 1 1 1 1 0 1 1 1 1 0 1 1 0 1 1 1 0 1 1 1 2 1 1 1 1 2 3 3 3
6 5 4 4 4 4 5 5 4 3 2 2 2 2 2 1 1 1 1 0 1 1 1 0 1 0 0 0 1 1 1 1 1 1 1 2 1 0 1 1 1 2 2
5 5 4 4 4 4 5 5 4 4 3 3 2 2 2 1 1 2 1 1 1 1 1 1 1 0 1 0 1 0 0 0 1 1 0 1 1 1 0 1 1 1 1
Wind_Direction
94 92 79 72 69 68 68 67 66 67 65 67 71 72 71 69 67 66 70 71 74 73 71 71 71 72 71 71 69 74 78 80 82 82 81 76 72 69 64 60 60 63 68
103 98 84 76 74 72 70 69 70 73 72 71 72 72 71 70 71 71 75 74 74 76 73 72 72 72 73 74 75 76 79 80 79 79 77 72 73 70 68 65 64 69 69
102 101 90 80 78 75 74 73 74 76 76 75 74 72 70 70 71 72 75 76 76 74 73 75 75 73 71 71 75 73 69 65 67 73 72 82 81 72 67 64 62 68 69
97 96 90 85 82 77 76 75 76 77 78 77 75 73 71 71 71 71 74 75 73 72 71 73 74 72 69 66 66 65 56 45 42 55 68 62 64 70 65 61 59 61 62
96 96 93 88 85 81 79 77 77 80 79 77 75 74 73 72 71 72 73 73 71 69 69 70 71 71 68 64 57 52 42 37 41 53 66 60 56 68 66 61 60 59 59
100 102 103 96 93 87 82 79 79 81 81 79 78 77 76 75 74 73 72 73 72 70 69 69 72 72 70 64 53 42 35 35 43 64 66 65 63 70 69 63 60 60 60
103 108 110 106 100 93 87 84 85 86 85 84 82 80 80 80 77 75 72 70 69 67 69 69 71 72 69 62 49 39 34 33 66 71 70 65 66 68 65 60 57 56 55
106 109 116 113 107 101 95 90 88 90 89 87 87 83 83 83 82 79 77 74 72 69 67 66 69 71 68 60 44 32 25 31 65 77 72 63 65 64 60 57 54 54 54
109 117 124 124 115 110 103 98 97 95 94 93 90 90 91 90 90 87 81 76 73 71 68 68 67 69 67 57 38 26 30 39 49 61 68 61 63 62 60 58 56 53 51
109 116 124 128 128 122 113 105 105 102 100 99 98 97 99 102 101 96 89 80 75 71 68 68 70 72 70 54 28 14 28 32 69 67 65 65 63 60 59 58 56 54 53
100 106 116 123 124 124 124 119 121 117 117 117 115 114 121 118 108 100 93 92 83 77 71 73 85 89 88 28 323 345 18 80 81 73 66 69 65 61 59 58 55 53 54
123 119 108 110 111 112 112 126 136 129 138 145 142 146 153 93 94 100 103 108 103 92 80 53 250 245 232 183 149 159 82 80 86 84 77 75 68 63 59 56 54 52 52
121 106 113 115 113 110 107 111 98 101 121 111 98 104 91 88 99 105 119 122 129 129 73 341 263 262 171 106 104 106 89 80 82 82 83 81 74 66 61 57 54 51 52
108 105 94 96 110 112 106 111 106 89 89 75 74 85 74 69 76 94 97 106 105 68 26 17 4 45 62 75 76 76 82 89 97 92 89 89 82 75 68 62 55 51 52
116 112 105 96 100 103 95 89 101 93 84 83 38 72 85 76 62 77 72 70 57 52 41 15 33 42 39 42 50 55 57 70 90 94 91 94 89 81 75 69 60 54 56
128 128 113 108 92 95 101 107 98 91 67 72 51 37 66 71 63 71 71 60 55 40 35 37 48 51 43 42 46 49 47 49 81 102 106 93 89 85 81 73 66 60 60
140 135 127 125 112 107 104 91 89 92 91 72 51 35 52 64 65 66 70 64 62 57 41 35 40 42 50 48 45 42 42 32 49 91 104 110 99 86 82 77 71 65 63
139 135 128 127 119 108 101 92 89 82 81 76 57 28 52 62 61 67 61 48 45 53 50 39 41 41 38 38 33 30 36 27 28 61 97 114 120 112 95 88 79 72 64
140 138 129 131 129 117 107 93 79 75 79 79 63 36 35 49 61 69 68 53 55 55 45 39 45 42 37 29 21 33 30 34 358 26 63 87 102 117 121 113 99 85 72
139 139 140 141 130 112 107 106 86 76 83 86 79 56 41 43 56 62 65 61 65 62 48 56 62 43 38 16 8 16 2 24 29 35 41 51 66 86 101 126 131 105 88
143 147 148 148 146 136 129 121 112 107 91 86 99 95 65 53 65 63 51 51 66 67 53 61 83 60 22 13 29 360 344 6 53 70 61 50 51 66 76 90 114 124 108
159 160 149 148 152 145 141 139 142 140 139 127 114 109 102 82 78 76 73 70 74 65 48 46 56 56 355 1 26 22 359 358 347 38 74 81 59 51 49 55 63 77 102
159 161 158 157 155 147 140 134 135 118 106 102 111 108 120 122 116 119 97 104 123 119 113 95 89 75 3 331 27 61 63 315 313 334 7 87 63 40 54 59 50 55 78
159 159 160 153 152 147 146 146 147 142 146 150 146 142 161 164 122 122 124 128 136 108 108 190 103 107 90 318 327 343 108 135 120 324 325 4 72 71 61 56 58 48 66
156 154 155 147 148 146 147 151 156 149 155 153 152 150 174 185 160 173 210 175 131 136 153 100 59 18 192 225 301 321 330 335 279 148 285 322 340 338 93 77 77 65 73
146 147 148 148 147 150 152 154 157 155 157 152 156 159 175 155 170 196 196 179 175 162 172 169 183 247 314 332 311 296 286 337 305 351 287 301 289 285 93 98 103 95 96